Location: Newark
(37.9800°N, 91.3000°W)
Time: 22:45:50
(UTC+00:00)

NOAA 19 - Pass Details

Date: 12 December 2019
Orbit: 840 x 862 km, 99.2° (Epoch: 21 January)

Event Time Altitude Azimuth Distance (km) Brightness Sun altitude
Rises 11:05:47 0° 23° (NNE) 3,437 8.5 -24.0°
Reaches altitude 10° 11:08:23 10° 33° (NNE) 2,493 7.9 -23.5°
Maximum altitude 11:13:25 35° 98° (E) 1,350 6.8 -22.6°
Drops below altitude 10° 11:18:22 10° 163° (SSE) 2,466 8.0 -21.6°
Sets 11:20:55 0° 172° (S) 3,394 8.6 -21.1°
